Location: Ashtead
(51.3000°N, 0.3000°W)
Time: 03:40:53
(UTC+00:00)

CZ-4 R/B - Pass Details

Date: 26 September 2023
Orbit: 680 x 748 km, 98.6° (Epoch: 29 November)

Event Time Altitude Azimuth Distance (km) Brightness Sun altitude
Rises 02:43:02 0° 16° (NNE) 3,058 7.9 -28.4°
Reaches altitude 10° 02:45:17 10° 20° (NNE) 2,142 7.0 -28.1°
Enters shadow 02:49:39 66° 77° (ENE) 756 4.0 -27.6°
